| time (UTC) | temp F | wind direction | speed knots | gust knots | rain 1hr in | rain 24hr in | rain mn in | humidity % | barometer mb |
| 20260505014546 | 78 | 350 | 0.9 | 1.7 | 0.00 | 0.00 | 0.00 | 94 | 206.0 |
| 20260505013041 | 79 | 349 | 0.9 | 2.6 | 0.00 | 0.00 | 0.00 | 94 | 206.0 |
| 20260505011602 | 79 | 348 | 1.7 | 2.6 | 0.00 | 0.00 | 0.00 | 93 | 206.0 |
| 20260505010043 | 79 | 0 | 0.9 | 2.6 | 0.00 | 0.00 | 0.00 | 92 | 206.0 |
| 20260505004547 | 79 | 340 | 0.0 | 0.9 | 0.00 | 0.00 | 0.00 | 92 | 206.0 |
| 20260505003034 | 80 | 0 | 0.0 | 0.0 | 0.00 | 0.00 | 0.00 | 91 | 206.0 |
| 20260505001543 | 80 | 0 | 0.0 | 0.9 | 0.00 | 0.00 | 0.00 | 91 | 206.0 |
| 20260505000058 | 80 | 340 | 0.9 | 2.6 | 0.00 | 0.00 | 0.00 | 90 | 206.0 |
| 20260504234540 | 81 | 334 | 1.7 | 2.6 | 0.00 | 0.00 | 0.00 | 88 | 206.0 |
| 20260504233054 | 81 | 144 | 0.9 | 1.7 | 0.00 | 0.00 | 0.00 | 82 | 206.0 |
| 20260504231536 | 82 | 0 | 0.0 | 2.6 | 0.00 | 0.00 | 0.00 | 81 | 206.0 |
| 20260504230044 | 83 | 129 | 1.7 | 2.6 | 0.00 | 0.00 | 0.00 | 81 | 206.0 |
| 20260504224544 | 84 | 158 | 0.9 | 1.7 | 0.00 | 0.00 | 0.00 | 79 | 206.0 |
| 20260504223043 | 86 | 155 | 1.7 | 3.5 | 0.00 | 0.00 | 0.00 | 77 | 206.0 |
| 20260504221539 | 87 | 148 | 2.6 | 4.3 | 0.00 | 0.00 | 0.00 | 76 | 206.0 |
| 20260504220036 | 87 | 214 | 2.6 | 5.2 | 0.00 | 0.00 | 0.00 | 74 | 206.0 |
| 20260504214534 | 89 | 158 | 2.6 | 4.3 | 0.00 | 0.00 | 0.00 | 72 | 206.0 |
| 20260504213045 | 90 | 157 | 2.6 | 4.3 | 0.00 | 0.00 | 0.00 | 70 | 206.0 |
| 20260504211541 | 90 | 218 | 1.7 | 4.3 | 0.00 | 0.00 | 0.00 | 71 | 206.0 |
| 20260504210040 | 89 | 162 | 2.6 | 5.2 | 0.00 | 0.00 | 0.00 | 72 | 206.0 |
| 20260504204535 | 88 | 153 | 2.6 | 6.1 | 0.00 | 0.00 | 0.00 | 74 | 206.0 |
| 20260504203036 | 87 | 234 | 2.6 | 7.0 | 0.00 | 0.00 | 0.00 | 75 | 206.0 |
| 20260504201544 | 87 | 187 | 5.2 | 7.8 | 0.00 | 0.00 | 0.00 | 75 | 206.0 |
| 20260504200042 | 87 | 217 | 4.3 | 7.8 | 0.00 | 0.00 | 0.00 | 74 | 206.0 |
| 20260504194540 | 87 | 150 | 4.3 | 7.8 | 0.00 | 0.00 | 0.00 | 75 | 206.0 |
| 20260504193036 | 87 | 160 | 4.3 | 7.8 | 0.00 | 0.00 | 0.00 | 74 | 206.0 |
| 20260504191559 | 87 | 193 | 4.3 | 7.8 | 0.00 | 0.00 | 0.00 | 74 | 206.0 |
| 20260504190048 | 87 | 186 | 4.3 | 7.8 | 0.00 | 0.00 | 0.00 | 75 | 206.0 |
| 20260504184546 | 88 | 212 | 5.2 | 8.7 | 0.00 | 0.00 | 0.00 | 74 | 206.0 |
| 20260504183041 | 88 | 195 | 4.3 | 8.7 | 0.00 | 0.00 | 0.00 | 74 | 206.0 |
| 20260504181539 | 87 | 212 | 5.2 | 8.7 | 0.00 | 0.00 | 0.00 | 73 | 206.0 |
| 20260504180035 | 87 | 194 | 4.3 | 9.6 | 0.00 | 0.00 | 0.00 | 74 | 206.0 |
| 20260504174546 | 87 | 214 | 6.1 | 10.4 | 0.00 | 0.00 | 0.00 | 75 | 206.0 |
| 20260504173041 | 86 | 200 | 7.0 | 11.3 | 0.00 | 0.00 | 0.00 | 78 | 206.0 |
| 20260504171548 | 86 | 195 | 8.7 | 12.2 | 0.00 | 0.00 | 0.00 | 77 | 206.0 |
| 20260504081541 | 80 | 137 | 11.3 | 14.8 | 0.00 | 0.00 | 0.00 | 87 | 206.0 |
| 20260504044543 | 80 | 108 | 12.2 | 15.6 | 0.00 | 0.00 | 0.00 | 92 | 206.0 |
| 20260504043050 | 80 | 112 | 12.2 | 14.8 | 0.00 | 0.00 | 0.00 | 91 | 206.0 |
| 20260504041542 | 80 | 115 | 10.4 | 13.9 | 0.00 | 0.00 | 0.00 | 92 | 206.0 |
| 20260504040042 | 80 | 93 | 10.4 | 13.9 | 0.00 | 0.00 | 0.00 | 92 | 206.0 |
| 20260504034536 | 81 | 115 | 12.2 | 14.8 | 0.00 | 0.00 | 0.00 | 92 | 206.0 |
| 20260504033037 | 81 | 89 | 11.3 | 13.9 | 0.00 | 0.00 | 0.00 | 91 | 206.0 |
| 20260504031545 | 81 | 84 | 9.6 | 12.2 | 0.00 | 0.00 | 0.00 | 90 | 206.0 |
| 20260504030044 | 82 | 143 | 4.3 | 7.8 | 0.00 | 0.00 | 0.00 | 86 | 206.0 |
| 20260504024539 | 82 | 158 | 5.2 | 7.8 | 0.00 | 0.00 | 0.00 | 87 | 206.0 |
| 20260504023037 | 82 | 158 | 3.5 | 6.1 | 0.00 | 0.00 | 0.00 | 88 | 206.0 |
| 20260504021547 | 82 | 143 | 2.6 | 6.1 | 0.00 | 0.00 | 0.00 | 86 | 206.0 |
| 20260504020042 | 82 | 144 | 3.5 | 6.1 | 0.00 | 0.00 | 0.00 | 86 | 206.0 |